FREGAT DEB, 45974

Orbit data source: Space-Track

FREGAT DEB, 45974 is space debris in LEO originally from a launch on Mon, 18 Jul 2011 UTC launched from the Tyuratam Missile And Space Complex (TTMTR). Debris objects in space refer to the collection of defunct objects orbiting the Earth. Examples of debris include non-operational satellites, rocket bodies, and fragments generated from explosions, collisions, or faulty payload assembly.

Loading next visibility...
Identifier
45974, 2011-037GF
Orbit
LEO
Country
Flag of CISCIS
Related business
Manufacturer
Lavochkin
Mission
Spacecraft
Bus & Motor
Unknown
Mass
Unknown
Launch date (UTC)
2011-07-18 (14 years ago)
Launch vehicle
Unknown
Launch site
Tyuratam Missile And Space Complex (TTMTR)
Object type
Payload
Rocket body
Debris
Shape & HBR
Unknown shape, 0.1 m
Radar Cross Section
Small (<0.1 m²)

Expand to show TLE details & history
Last TLE update: 1 week ago

TLE from 1 week ago
0 FREGAT DEB
1 45974U 11037GF  25284.29747546  .00000139  00000-0  23000-3 0  9997
2 45974  51.4864 273.8808 2162412 215.8101 127.6727 10.28447882195473
Epoch: 2025-10-11T07:08Z
TLE epoch observation values (Epoch: 2025-10-11T07:08:21.879Z)
Latitude
-0.00003°
Longitude
146.65864°
Altitude
3,949.198 km
Speed
5.709 km/s
True Right ascension
18h 15m 31s
True Declination
0° 00' 00"
Sunlit
Object was in daylight at epoch
Visualization orbit readout
Latitude
Unknown
Longitude
Unknown
Altitude
Unknown
Speed
Unknown
Apparent Right ascension
Unknown
Apparent Declination
Unknown
Sunlit
N/A
Visualization observer readout
Local Sidereal Time
02:59:19
Azimuth
Unknown
Elevation
Unknown
Doppler factor
Unknown
Orbital elements
Apogee altitude
4,485.819 km
Perigee altitude
622.712 km
Semi-major axis
8,932.402 km
Eccentricity
0.21624
Inclination
51.4864°
RAAN
273.8808°
Arg. of periapsis
215.8101°
True anomaly
144.26495°
Mean anomaly
127.6727°
Eccentric anomaly
136.24165°
Mean motion
2.57093 °/min
Orbital period
140.03 mins
BSTAR
0.00023
Loading maneuver chart data...
Computing Atmospheric mass density...
Loading historical data...
Loading historical data...
Loading historical data...
Loading historical data...
Loading historical data...
Loading historical data...
Loading historical data...

Documentation

Showing up to 5 results
|